Tracking 29892 objects as of 21-Nov-2024
HD Live streaming from Space Station
objects crossing your sky now

COSMOS 1727

Track COSMOS 1727 now!
10-day predictions
COSMOS 1727 is classified as:


NORAD ID: 16510
Int'l Code: 1986-008A
Perigee: 961.9 km
Apogee: 1,018.6 km
Inclination: 83.0 °
Period: 104.8 minutes
Semi major axis: 7361 km
RCS: 1.5351 m2 (large)
Launch date: January 23, 1986
Source: Commonwealth of Independent States (former USSR) (CIS)
Launch site: PLESETSK MISSILE AND SPACE COMPLEX (PKMTR)
Your satellite tracking list
Your tracking list is empty




NASA's NSSDC Master Catalog

Two Line Element Set (TLE):
1 16510U 86008A   24326.17802654  .00000094  00000-0  82442-4 0  9992
2 16510  82.9509  36.8707 0038543  31.9947 347.0158 13.74600780947290
Source of the keplerian elements: AFSPC